User: anonymous   Login
Location: Unspecified
(0.0000°N, 0.0000°E)
Time: 07:40:48
(UTC+00:00)
Language:

PAKSAT 1R - Orbit

View from above orbital plane
View from above orbital plane
View from above satellite
View from above satellite

Ground track
Ground track

The orbit data is extracted from the following two-line orbital elements,

1 37779U 11042A   17296.59203382 +.00000146 +00000-0 +00000-0 0  9999
2 37779 000.0367 007.6028 0003086 211.5330 064.2602 01.00276052022801
Epoch (UTC): 23 October 2017 14:12:31
Eccentricity: 0.0003086
inclination: 0.0367°
perigee height: 35772 km
apogee height: 35798 km
right ascension of ascending node: 7.6028°
argument of perigee: 211.5330°
revolutions per day: 1.00276052
mean anomaly at epoch: 64.2602°
orbit number at epoch: 2280

The dashed part of the orbit path shows where the satellite is in the earth's shadow,  

DLR